Location: Vihti�l�
(61.3833°N, 23.0667°E)
Time: 03:02:23
(UTC+00:00)

USA 229 DEB - Pass Details

Date: 29 November 2020
Orbit: 965 x 1247 km, 63.4° (Epoch: 16 January)

Event Time Altitude Azimuth Distance (km) Brightness Sun altitude
Exits shadow 05:42:23 11° 297° (WNW) 2,890 5.3 -9.1°
Maximum altitude 05:49:09 64° 218° (SW) 1,273 4.1 -8.4°
Drops below altitude 10° 05:56:35 10° 140° (SE) 3,146 7.6 -7.7°
Sets 05:59:26 0° 137° (SE) 4,136 8.6 -7.4°
